Weather History for Glendale Luke AFB, AZ

Change the Weather History Date:

Sunday, October 14, 2012

  Actual Average Record
Temperature  
Mean Temperature 74 °F -  
Max Temperature 92 °F 92 °F 102 °F (1955)
Min Temperature 57 °F 54 °F 42 °F (1920)
Cooling Degree Days 10    
Growing Degree Days 24 (Base 50)    
Moisture  
Dew Point 42 °F    
Average Humidity 34    
Maximum Humidity 60    
Minimum Humidity 14    
Precipitation  
Precipitation 0.00 in - - ()
Sea Level Pressure  
Sea Level Pressure 29.96 in    
Wind  
Wind Speed 4 mph (NNW)    
Max Wind Speed 13 mph    
Max Gust Speed -    
Visibility 10 miles    
Events      
Averages and records for this station are not official NWS values.
T = Trace of Precipitation, MM = Missing Value Source: NWS Daily Summary

Daily Weather History Graph

Daily Weather History Graph

Search for Another Location

Airport:

Trip Planner

Search our weather history database for the weather conditions in past years. The results will help you decide how hot, cold, wet, or windy it might be!

Date:

Astronomy

Oct. 14, 2012 Rise Set
Actual Time 6:33 AM MST 5:56 PM MST
Civil Twilight 6:08 AM MST 6:21 PM MST
Nautical Twilight 5:39 AM MST 6:50 PM MST
Astronomical Twilight 5:11 AM MST 7:19 PM MST
Moon 5:38 AM MST (10/14) 5:19 PM MST (10/14)
Length of Visible Light 12h 12m
Length of Day
11h 22m
Waning Crescent, 1% of the Moon is Illuminated
Oct 14
Waning Crescent
Oct 15
New
Oct 21
First Quarter
Oct 29
Full
Nov 6
Last Quarter

Hourly Weather History & Observations

Time (MST) Temp. Dew Point Humidity Pressure Visibility Wind Dir Wind Speed Gust Speed Precip Events Conditions
12:55 AM 64.8 °F 42.6 °F 45% 30.01 in 10.0 mi NNW 3.5 mph - N/A   Clear
1:55 AM 62.4 °F 44.1 °F 51% 30.01 in 10.0 mi NNW 5.8 mph - N/A   Clear
2:55 AM 61.3 °F 43.0 °F 51% 30.00 in 10.0 mi North 4.6 mph - N/A   Clear
3:55 AM 61.3 °F 42.3 °F 50% 30.00 in 10.0 mi NNE 3.5 mph - N/A   Clear
4:55 AM 58.8 °F 43.3 °F 56% 30.01 in 10.0 mi Calm Calm - N/A   Clear
5:55 AM 57.6 °F 41.7 °F 56% 30.03 in 10.0 mi NNW 4.6 mph - N/A   Clear
6:55 AM 58.5 °F 44.4 °F 60% 30.03 in 10.0 mi NNE 3.5 mph - N/A   Clear
7:55 AM 63.3 °F 45.1 °F 52% 30.05 in 10.0 mi NW 5.8 mph - N/A   Clear
8:55 AM 71.2 °F 45.7 °F 40% 30.06 in 10.0 mi Calm Calm - N/A   Clear
9:55 AM 76.8 °F 45.0 °F 32% 30.05 in 10.0 mi Calm Calm - N/A   Clear
10:55 AM 81.1 °F 43.7 °F 27% 30.03 in 10.0 mi Calm Calm - N/A   Clear
11:55 AM 83.5 °F 44.6 °F 25% 30.00 in 10.0 mi Calm Calm - N/A   Clear
12:55 PM 87.1 °F 43.2 °F 21% 29.97 in 10.0 mi Calm Calm - N/A   Clear
1:55 PM 89.8 °F 41.5 °F 19% 29.93 in 10.0 mi Calm Calm - N/A   Clear
2:55 PM 91.4 °F 39.9 °F 17% 29.90 in 10.0 mi Calm Calm - N/A   Clear
3:55 PM 92.1 °F 38.8 °F 15% 29.88 in 10.0 mi SE 6.9 mph - N/A   Clear
4:55 PM 91.6 °F 36.7 °F 14% 29.88 in 10.0 mi ESE 3.5 mph - N/A   Clear
5:55 PM 86.9 °F 43.2 °F 22% 29.88 in 10.0 mi SW 9.2 mph - N/A   Clear
6:55 PM 81.9 °F 42.3 °F 25% 29.89 in 10.0 mi SW 5.8 mph - N/A   Clear
7:55 PM 77.4 °F 41.7 °F 28% 29.90 in 10.0 mi West 3.5 mph - N/A   Clear
8:55 PM 75.2 °F 39.9 °F 28% 29.90 in 10.0 mi NNW 9.2 mph - N/A   Clear
9:55 PM 72.3 °F 41.2 °F 32% 29.91 in 10.0 mi North 4.6 mph - N/A   Clear
10:55 PM 73.6 °F 39.4 °F 29% 29.90 in 10.0 mi NNW 12.7 mph - N/A   Clear
11:55 PM 71.8 °F 38.7 °F 30% 29.90 in 10.0 mi NNW 8.1 mph - N/A   Clear